Year,Month,Day,Hour,Minute,Value (Times are PST for temperature in C)
2009,12,15,03,36,4.20
2009,12,15,03,37,4.30
2009,12,15,03,38,4.30
2009,12,15,03,39,4.30
2009,12,15,03,40,4.30
2009,12,15,03,41,4.30
2009,12,15,03,42,4.30
2009,12,15,03,43,4.30
2009,12,15,03,44,4.30
2009,12,15,03,45,4.30
2009,12,15,03,46,4.30
2009,12,15,03,47,4.40
2009,12,15,03,48,4.40
2009,12,15,03,49,4.40
2009,12,15,03,50,4.40
2009,12,15,03,51,4.40
2009,12,15,03,52,4.40
2009,12,15,03,53,4.40
2009,12,15,03,54,4.40
2009,12,15,03,55,4.40
2009,12,15,03,56,4.40
2009,12,15,03,57,4.40
2009,12,15,03,58,4.40
2009,12,15,03,59,4.50
2009,12,15,04,00,4.50
2009,12,15,04,01,4.50
2009,12,15,04,02,4.60
2009,12,15,04,03,4.60
2009,12,15,04,04,4.60
2009,12,15,04,05,4.60
2009,12,15,04,06,4.50
2009,12,15,04,07,4.50
2009,12,15,04,08,4.50
2009,12,15,04,09,4.50
2009,12,15,04,10,4.50
2009,12,15,04,11,4.50
2009,12,15,04,12,4.50
2009,12,15,04,13,4.50
2009,12,15,04,14,4.50
2009,12,15,04,15,4.50
2009,12,15,04,16,4.50
2009,12,15,04,17,4.50
2009,12,15,04,18,4.50
2009,12,15,04,19,4.50
2009,12,15,04,20,4.50
2009,12,15,04,21,4.50
2009,12,15,04,22,4.50
2009,12,15,04,23,4.50
2009,12,15,04,24,4.50
2009,12,15,04,25,4.50
2009,12,15,04,26,4.60
2009,12,15,04,27,4.60
2009,12,15,04,28,4.60
2009,12,15,04,29,4.60
2009,12,15,04,30,4.60
2009,12,15,04,31,4.60
2009,12,15,04,32,4.60
2009,12,15,04,33,4.60
2009,12,15,04,34,4.60
2009,12,15,04,35,4.60
2009,12,15,04,36,4.60
2009,12,15,04,37,4.60
2009,12,15,04,38,4.60
2009,12,15,04,39,4.60
2009,12,15,04,40,4.50
2009,12,15,04,41,4.50
2009,12,15,04,42,4.50
2009,12,15,04,43,4.50
2009,12,15,04,44,4.50
2009,12,15,04,45,4.50
2009,12,15,04,46,4.50
2009,12,15,04,47,4.50
2009,12,15,04,48,4.60
2009,12,15,04,49,4.60
2009,12,15,04,50,4.60
2009,12,15,04,51,4.70
2009,12,15,04,52,4.70
2009,12,15,04,53,4.70
2009,12,15,04,54,4.70
2009,12,15,04,55,4.70
2009,12,15,04,56,4.70
2009,12,15,04,57,4.70
2009,12,15,04,58,4.70
2009,12,15,04,59,4.80
2009,12,15,05,00,4.80
2009,12,15,05,01,4.70
2009,12,15,05,02,4.70
2009,12,15,05,03,4.70
2009,12,15,05,04,4.70
2009,12,15,05,05,4.60
2009,12,15,05,06,4.60
2009,12,15,05,07,4.60
2009,12,15,05,08,4.60
2009,12,15,05,09,4.60
2009,12,15,05,10,4.70
2009,12,15,05,11,4.70
2009,12,15,05,12,4.70
2009,12,15,05,13,4.70
2009,12,15,05,14,4.70
2009,12,15,05,15,4.70
2009,12,15,05,16,4.80
2009,12,15,05,17,4.80
2009,12,15,05,18,4.80
2009,12,15,05,19,4.80
2009,12,15,05,20,4.80
2009,12,15,05,21,4.80
2009,12,15,05,22,4.80
2009,12,15,05,23,4.80
2009,12,15,05,24,4.80
2009,12,15,05,25,4.80
2009,12,15,05,26,4.80
2009,12,15,05,27,4.80
2009,12,15,05,28,4.80
2009,12,15,05,29,4.80
2009,12,15,05,30,4.80
2009,12,15,05,31,4.80
2009,12,15,05,32,4.80
2009,12,15,05,33,4.80
2009,12,15,05,34,4.90
2009,12,15,05,35,4.90
2009,12,15,05,36,4.90
2009,12,15,05,37,4.90
2009,12,15,05,38,4.90
2009,12,15,05,39,4.90
2009,12,15,05,40,4.80
2009,12,15,05,41,4.80
2009,12,15,05,42,4.80
2009,12,15,05,43,4.80
2009,12,15,05,44,4.80
2009,12,15,05,45,4.80
2009,12,15,05,46,4.80
2009,12,15,05,47,4.90
2009,12,15,05,48,4.90
2009,12,15,05,49,4.90
2009,12,15,05,50,4.90
2009,12,15,05,51,4.90
2009,12,15,05,52,4.90
2009,12,15,05,53,4.90
2009,12,15,05,54,4.90
2009,12,15,05,55,4.90
2009,12,15,05,56,4.90
2009,12,15,05,57,4.90
2009,12,15,05,58,4.90
2009,12,15,05,59,4.90
2009,12,15,06,00,4.90
2009,12,15,06,01,4.90
2009,12,15,06,02,4.90
2009,12,15,06,03,4.90
2009,12,15,06,04,4.90
2009,12,15,06,05,4.90
2009,12,15,06,06,5.00
2009,12,15,06,07,5.00
2009,12,15,06,08,5.00
2009,12,15,06,09,5.00
2009,12,15,06,10,4.90
2009,12,15,06,11,4.90
2009,12,15,06,12,4.90
2009,12,15,06,13,4.90
2009,12,15,06,14,4.80
2009,12,15,06,15,4.80
2009,12,15,06,16,4.80
2009,12,15,06,17,4.80
2009,12,15,06,18,4.80
2009,12,15,06,19,4.80
2009,12,15,06,20,4.90
2009,12,15,06,21,4.90
2009,12,15,06,22,4.90
2009,12,15,06,23,4.90
2009,12,15,06,24,4.90
2009,12,15,06,25,4.90
2009,12,15,06,26,5.00
2009,12,15,06,27,5.00
2009,12,15,06,28,5.00
2009,12,15,06,29,5.00
2009,12,15,06,30,5.00
2009,12,15,06,31,5.10
2009,12,15,06,32,5.10
2009,12,15,06,33,5.10
2009,12,15,06,34,5.10
2009,12,15,06,35,5.10
2009,12,15,06,36,5.10
2009,12,15,06,37,5.10
2009,12,15,06,38,5.10
2009,12,15,06,39,5.10
2009,12,15,06,40,5.10
2009,12,15,06,41,5.10
2009,12,15,06,42,5.20
2009,12,15,06,43,5.20
2009,12,15,06,44,5.20
2009,12,15,06,45,5.20
2009,12,15,06,46,5.20
2009,12,15,06,47,5.20
2009,12,15,06,48,5.20
2009,12,15,06,49,5.20
2009,12,15,06,50,5.20
2009,12,15,06,51,5.20
2009,12,15,06,52,5.10
2009,12,15,06,53,5.10
2009,12,15,06,54,5.10
2009,12,15,06,55,5.10
2009,12,15,06,56,5.10
2009,12,15,06,57,5.10
2009,12,15,06,58,5.10
2009,12,15,06,59,5.10
2009,12,15,07,00,5.10
2009,12,15,07,01,5.10
2009,12,15,07,02,5.10
2009,12,15,07,03,5.10
2009,12,15,07,04,5.10
2009,12,15,07,05,5.10
2009,12,15,07,06,5.10
2009,12,15,07,07,5.10
2009,12,15,07,08,5.20
2009,12,15,07,09,5.20
2009,12,15,07,10,5.20
2009,12,15,07,11,5.20
2009,12,15,07,12,5.20
2009,12,15,07,13,5.20
2009,12,15,07,14,5.30
2009,12,15,07,15,5.30
2009,12,15,07,16,5.30
2009,12,15,07,17,5.30
2009,12,15,07,18,5.30
2009,12,15,07,19,5.30
2009,12,15,07,20,5.30
2009,12,15,07,21,5.30
2009,12,15,07,22,5.30
2009,12,15,07,23,5.30
2009,12,15,07,24,5.30
2009,12,15,07,25,5.30
2009,12,15,07,26,5.30
2009,12,15,07,27,5.30
2009,12,15,07,28,5.30
2009,12,15,07,29,5.30
2009,12,15,07,30,5.30
2009,12,15,07,31,5.30
2009,12,15,07,32,5.30
2009,12,15,07,33,5.30
2009,12,15,07,34,5.30
2009,12,15,07,35,5.30
2009,12,15,07,36,5.30
2009,12,15,07,37,5.30
2009,12,15,07,38,5.30
2009,12,15,07,39,5.30
2009,12,15,07,40,5.30
2009,12,15,07,41,5.30
2009,12,15,07,42,5.30
2009,12,15,07,43,5.30
2009,12,15,07,44,5.40
2009,12,15,07,45,5.40
2009,12,15,07,46,5.40
2009,12,15,07,47,5.40
2009,12,15,07,48,5.40
2009,12,15,07,49,5.40
2009,12,15,07,50,5.40
2009,12,15,07,51,5.40
2009,12,15,07,52,5.40
2009,12,15,07,53,5.40
2009,12,15,07,54,5.40
2009,12,15,07,55,5.40
2009,12,15,07,56,5.40
2009,12,15,07,57,5.40
2009,12,15,07,58,5.40
2009,12,15,07,59,5.40
2009,12,15,08,00,5.50
2009,12,15,08,01,5.60
2009,12,15,08,02,5.60
2009,12,15,08,03,5.70
2009,12,15,08,04,5.70
2009,12,15,08,05,5.70
2009,12,15,08,06,5.70
2009,12,15,08,07,5.70
2009,12,15,08,08,5.70
2009,12,15,08,09,5.70
2009,12,15,08,10,5.60
2009,12,15,08,11,5.60
2009,12,15,08,12,5.60
2009,12,15,08,13,5.50
2009,12,15,08,14,5.50
2009,12,15,08,15,5.60
2009,12,15,08,16,5.60
2009,12,15,08,17,5.60
2009,12,15,08,18,5.60
2009,12,15,08,19,5.60
2009,12,15,08,20,5.60
2009,12,15,08,21,5.60
2009,12,15,08,22,5.70
2009,12,15,08,23,5.70
2009,12,15,08,24,5.70
2009,12,15,08,25,5.70
2009,12,15,08,26,5.80
2009,12,15,08,27,5.80
2009,12,15,08,28,5.80
2009,12,15,08,29,5.80
2009,12,15,08,30,5.80
2009,12,15,08,31,5.80
2009,12,15,08,32,5.80
2009,12,15,08,33,5.70
2009,12,15,08,34,5.70
2009,12,15,08,35,5.70
2009,12,15,08,36,5.70
2009,12,15,08,37,5.70
2009,12,15,08,38,5.70
2009,12,15,08,39,5.70
2009,12,15,08,40,5.70
2009,12,15,08,41,5.50
2009,12,15,08,42,5.20
2009,12,15,08,43,5.00
2009,12,15,08,44,4.90
2009,12,15,08,45,4.90
2009,12,15,08,46,5.00
2009,12,15,08,47,5.10
2009,12,15,08,48,5.10
2009,12,15,08,49,5.10
2009,12,15,08,50,5.10
2009,12,15,08,51,5.10
2009,12,15,08,52,5.10
2009,12,15,08,53,5.10
2009,12,15,08,54,5.20
2009,12,15,08,55,5.20
2009,12,15,08,56,5.30
2009,12,15,08,57,5.40
2009,12,15,08,58,5.50
2009,12,15,08,59,5.60
2009,12,15,09,00,5.50
2009,12,15,09,01,5.40
2009,12,15,09,02,5.30
2009,12,15,09,03,5.20
2009,12,15,09,04,5.10
2009,12,15,09,05,5.10
2009,12,15,09,06,5.10
2009,12,15,09,07,5.00
2009,12,15,09,08,5.00
2009,12,15,09,09,5.00
2009,12,15,09,10,5.00
2009,12,15,09,11,5.00
2009,12,15,09,12,5.00
2009,12,15,09,13,5.10
2009,12,15,09,14,5.10
2009,12,15,09,15,5.10
2009,12,15,09,16,5.20
2009,12,15,09,17,5.20
2009,12,15,09,18,5.20
2009,12,15,09,19,5.20
2009,12,15,09,20,5.20
2009,12,15,09,21,5.20
2009,12,15,09,22,5.30
2009,12,15,09,23,5.30
2009,12,15,09,24,5.30
2009,12,15,09,25,5.30
2009,12,15,09,26,5.20
2009,12,15,09,27,5.20
2009,12,15,09,28,5.10
2009,12,15,09,29,5.00
2009,12,15,09,30,5.00
2009,12,15,09,31,4.90
2009,12,15,09,32,4.90
2009,12,15,09,33,4.80
2009,12,15,09,34,4.80
2009,12,15,09,35,4.70
2009,12,15,09,36,4.70
2009,12,15,09,37,4.60
2009,12,15,09,38,4.50
2009,12,15,09,39,4.40
2009,12,15,09,40,4.30
2009,12,15,09,41,4.30
2009,12,15,09,42,4.20
2009,12,15,09,43,4.20
2009,12,15,09,44,4.10
2009,12,15,09,45,4.10
2009,12,15,09,46,4.10
2009,12,15,09,47,4.00
2009,12,15,09,48,4.00
2009,12,15,09,49,4.00
2009,12,15,09,50,3.90
2009,12,15,09,51,3.90
2009,12,15,09,52,3.90
2009,12,15,09,53,3.80
2009,12,15,09,54,3.80
2009,12,15,09,55,3.80
2009,12,15,09,56,3.80
2009,12,15,09,57,3.80
2009,12,15,09,58,3.80
2009,12,15,09,59,3.80
2009,12,15,10,00,3.80
2009,12,15,10,01,3.80
2009,12,15,10,02,3.80
2009,12,15,10,03,3.80
2009,12,15,10,04,3.80
2009,12,15,10,05,3.80
2009,12,15,10,06,3.80
2009,12,15,10,07,3.80
2009,12,15,10,08,3.80
2009,12,15,10,09,3.80
2009,12,15,10,10,3.90
2009,12,15,10,11,3.90
2009,12,15,10,12,3.90
2009,12,15,10,13,3.90
2009,12,15,10,14,3.80
2009,12,15,10,15,3.80
2009,12,15,10,16,3.80
2009,12,15,10,17,3.80
2009,12,15,10,18,3.80
2009,12,15,10,19,3.80
2009,12,15,10,20,3.80
2009,12,15,10,21,3.80
2009,12,15,10,22,3.80
2009,12,15,10,23,3.80
2009,12,15,10,24,3.80
2009,12,15,10,25,3.80
2009,12,15,10,26,3.70
2009,12,15,10,27,3.70
2009,12,15,10,28,3.70
2009,12,15,10,29,3.70
2009,12,15,10,30,3.70
2009,12,15,10,31,3.70
2009,12,15,10,32,3.70
2009,12,15,10,33,3.60
2009,12,15,10,34,3.60
2009,12,15,10,35,3.60
2009,12,15,10,36,3.60
2009,12,15,10,37,3.50
2009,12,15,10,38,3.50
2009,12,15,10,39,3.50
2009,12,15,10,40,3.50
2009,12,15,10,41,3.40
2009,12,15,10,42,3.40
2009,12,15,10,43,3.40
2009,12,15,10,44,3.40
2009,12,15,10,45,3.40
2009,12,15,10,46,3.40
2009,12,15,10,47,3.30
2009,12,15,10,48,3.30
2009,12,15,10,49,3.30
2009,12,15,10,50,3.30
2009,12,15,10,51,3.30
2009,12,15,10,52,3.30
2009,12,15,10,53,3.30
2009,12,15,10,54,3.30
2009,12,15,10,55,3.30
2009,12,15,10,56,3.30
2009,12,15,10,57,3.30
2009,12,15,10,58,3.30
2009,12,15,10,59,3.30
2009,12,15,11,00,3.30
2009,12,15,11,01,3.30
2009,12,15,11,02,3.30
2009,12,15,11,03,3.30
2009,12,15,11,04,3.30
2009,12,15,11,05,3.30
2009,12,15,11,06,3.30
2009,12,15,11,07,3.30
2009,12,15,11,08,3.30
2009,12,15,11,09,3.30
2009,12,15,11,10,3.30
2009,12,15,11,11,3.30
2009,12,15,11,12,3.30
2009,12,15,11,13,3.30
2009,12,15,11,14,3.30
2009,12,15,11,15,3.30
2009,12,15,11,16,3.30
2009,12,15,11,17,3.30
2009,12,15,11,18,3.30
2009,12,15,11,19,3.30
2009,12,15,11,20,3.30
2009,12,15,11,21,3.30
2009,12,15,11,22,3.30
2009,12,15,11,23,3.30
2009,12,15,11,24,3.30
2009,12,15,11,25,3.30
2009,12,15,11,26,3.30
2009,12,15,11,27,3.30
2009,12,15,11,28,3.30
2009,12,15,11,29,3.30
2009,12,15,11,30,3.30
2009,12,15,11,31,3.30
2009,12,15,11,32,3.30
2009,12,15,11,33,3.30
2009,12,15,11,34,3.30
2009,12,15,11,35,3.30
2009,12,15,11,36,3.30
2009,12,15,11,37,3.30
2009,12,15,11,38,3.30
2009,12,15,11,39,3.30
2009,12,15,11,40,3.30
2009,12,15,11,41,3.30
2009,12,15,11,42,3.30
2009,12,15,11,43,3.30
2009,12,15,11,44,3.30
2009,12,15,11,45,3.30
2009,12,15,11,46,3.30
2009,12,15,11,47,3.30
2009,12,15,11,48,3.30
2009,12,15,11,49,3.30
2009,12,15,11,50,3.30
2009,12,15,11,51,3.30
2009,12,15,11,52,3.30
2009,12,15,11,53,3.30
2009,12,15,11,54,3.40
2009,12,15,11,55,3.40
2009,12,15,11,56,3.40
2009,12,15,11,57,3.40
2009,12,15,11,58,3.40
2009,12,15,11,59,3.40
2009,12,15,12,00,3.40
2009,12,15,12,01,3.40
2009,12,15,12,02,3.40
2009,12,15,12,03,3.40
2009,12,15,12,04,3.40
2009,12,15,12,05,3.40
2009,12,15,12,06,3.40
2009,12,15,12,07,3.40
2009,12,15,12,08,3.40
2009,12,15,12,09,3.40
2009,12,15,12,10,3.40
2009,12,15,12,11,3.40
2009,12,15,12,12,3.40
2009,12,15,12,13,3.50
2009,12,15,12,14,3.50
2009,12,15,12,15,3.50
2009,12,15,12,16,3.50
2009,12,15,12,17,3.50
2009,12,15,12,18,3.50
2009,12,15,12,19,3.50
2009,12,15,12,20,3.60
2009,12,15,12,21,3.60
2009,12,15,12,22,3.60
2009,12,15,12,23,3.60
2009,12,15,12,24,3.60
2009,12,15,12,25,3.60
2009,12,15,12,26,3.60
2009,12,15,12,27,3.60
2009,12,15,12,28,3.70
2009,12,15,12,29,3.70
2009,12,15,12,30,3.70
2009,12,15,12,31,3.70
2009,12,15,12,32,3.70
2009,12,15,12,33,3.70
2009,12,15,12,34,3.70
2009,12,15,12,35,3.70
2009,12,15,12,36,3.70
2009,12,15,12,37,3.70
2009,12,15,12,38,3.70
2009,12,15,12,39,3.70
2009,12,15,12,40,3.70
2009,12,15,12,41,3.70
2009,12,15,12,42,3.70
2009,12,15,12,43,3.70
2009,12,15,12,44,3.70
2009,12,15,12,45,3.70
2009,12,15,12,46,3.70
2009,12,15,12,47,3.70
2009,12,15,12,48,3.70
2009,12,15,12,49,3.70
2009,12,15,12,50,3.70
2009,12,15,12,51,3.70
2009,12,15,12,52,3.60
2009,12,15,12,53,3.60
2009,12,15,12,54,3.60
2009,12,15,12,55,3.60
2009,12,15,12,56,3.60
2009,12,15,12,57,3.60
2009,12,15,12,58,3.60
2009,12,15,12,59,3.60
2009,12,15,13,00,3.60
2009,12,15,13,01,3.60
2009,12,15,13,02,3.60
2009,12,15,13,03,3.60
2009,12,15,13,04,3.60
2009,12,15,13,05,3.60
2009,12,15,13,06,3.60
2009,12,15,13,07,3.60
2009,12,15,13,08,3.60
2009,12,15,13,09,3.60
2009,12,15,13,10,3.60
2009,12,15,13,11,3.60
2009,12,15,13,12,3.60
2009,12,15,13,13,3.60
2009,12,15,13,14,3.60
2009,12,15,13,15,3.60
2009,12,15,13,16,3.60
2009,12,15,13,17,3.60
2009,12,15,13,18,3.60
2009,12,15,13,19,3.60
2009,12,15,13,20,3.60
2009,12,15,13,21,3.60
2009,12,15,13,22,3.60
2009,12,15,13,23,3.60
2009,12,15,13,24,3.60
2009,12,15,13,25,3.60
2009,12,15,13,26,3.60
2009,12,15,13,27,3.60
2009,12,15,13,28,3.60
2009,12,15,13,29,3.60
2009,12,15,13,30,3.60
2009,12,15,13,31,3.60
2009,12,15,13,32,3.60
2009,12,15,13,33,3.60
2009,12,15,13,34,3.70
2009,12,15,13,35,3.70
2009,12,15,13,36,3.70
2009,12,15,13,37,3.70
2009,12,15,13,38,3.70
2009,12,15,13,39,3.70
2009,12,15,13,40,3.70
2009,12,15,13,41,3.70
2009,12,15,13,42,3.70
2009,12,15,13,43,3.80
2009,12,15,13,44,3.80
2009,12,15,13,45,3.80
2009,12,15,13,46,3.80
2009,12,15,13,47,3.80
2009,12,15,13,48,3.80
2009,12,15,13,49,3.90
2009,12,15,13,50,3.90
2009,12,15,13,51,3.90
2009,12,15,13,52,4.00
2009,12,15,13,53,4.00
2009,12,15,13,54,4.10
2009,12,15,13,55,4.10
2009,12,15,13,56,4.10
2009,12,15,13,57,4.10
2009,12,15,13,58,4.10
2009,12,15,13,59,4.20
2009,12,15,14,00,4.20
2009,12,15,14,01,4.20
2009,12,15,14,02,4.20
2009,12,15,14,03,4.20
2009,12,15,14,04,4.30
2009,12,15,14,05,4.30
2009,12,15,14,06,4.30
2009,12,15,14,07,4.30
2009,12,15,14,08,4.20
2009,12,15,14,09,4.20
2009,12,15,14,10,4.20
2009,12,15,14,11,4.20
2009,12,15,14,12,4.20
2009,12,15,14,13,4.20
2009,12,15,14,14,4.20
2009,12,15,14,15,4.20
2009,12,15,14,16,4.20
2009,12,15,14,17,4.20
2009,12,15,14,18,4.20
2009,12,15,14,19,4.10
2009,12,15,14,20,4.10
2009,12,15,14,21,4.10
2009,12,15,14,22,4.10
2009,12,15,14,23,4.10
2009,12,15,14,24,4.10
2009,12,15,14,25,4.10
2009,12,15,14,26,4.10
2009,12,15,14,27,4.10
2009,12,15,14,28,4.10
2009,12,15,14,29,4.10
2009,12,15,14,30,4.10
2009,12,15,14,31,4.10
2009,12,15,14,32,4.10
2009,12,15,14,33,4.10
2009,12,15,14,34,4.10
2009,12,15,14,35,4.10
2009,12,15,14,36,4.10
2009,12,15,14,37,4.10
2009,12,15,14,38,4.10
2009,12,15,14,39,4.10
2009,12,15,14,40,4.10
2009,12,15,14,41,4.10
2009,12,15,14,42,4.10
2009,12,15,14,43,4.20
2009,12,15,14,44,4.20
2009,12,15,14,45,4.20
2009,12,15,14,46,4.20
2009,12,15,14,47,4.20
2009,12,15,14,48,4.20
2009,12,15,14,49,4.20
2009,12,15,14,50,4.20
2009,12,15,14,51,4.20
2009,12,15,14,52,4.20
2009,12,15,14,53,4.20
2009,12,15,14,54,4.20
2009,12,15,14,55,4.20
2009,12,15,14,56,4.20
2009,12,15,14,57,4.20
2009,12,15,14,58,4.20
2009,12,15,14,59,4.20
2009,12,15,15,00,4.20
2009,12,15,15,01,4.20
2009,12,15,15,02,4.20
2009,12,15,15,03,4.20
2009,12,15,15,04,4.20
2009,12,15,15,05,4.20
2009,12,15,15,06,4.20
2009,12,15,15,07,4.20
2009,12,15,15,08,4.20
2009,12,15,15,09,4.20
2009,12,15,15,10,4.20
2009,12,15,15,11,4.20
2009,12,15,15,12,4.20
2009,12,15,15,13,4.20
2009,12,15,15,14,4.20
2009,12,15,15,15,4.20
2009,12,15,15,16,4.30
2009,12,15,15,17,4.30
2009,12,15,15,18,4.30
2009,12,15,15,19,4.30
2009,12,15,15,20,4.30
2009,12,15,15,21,4.40
2009,12,15,15,22,4.40
2009,12,15,15,23,4.40
2009,12,15,15,24,4.40
2009,12,15,15,25,4.40
2009,12,15,15,26,4.40
2009,12,15,15,27,4.40
2009,12,15,15,28,4.40
2009,12,15,15,29,4.40
2009,12,15,15,30,4.40
2009,12,15,15,31,4.40
2009,12,15,15,32,4.40
2009,12,15,15,33,4.40
2009,12,15,15,34,4.40
2009,12,15,15,35,4.40
2009,12,15,15,36,4.40
2009,12,15,15,37,4.40
2009,12,15,15,38,4.40
2009,12,15,15,39,4.40
2009,12,15,15,40,4.40
2009,12,15,15,41,4.40
2009,12,15,15,42,4.40
2009,12,15,15,43,4.50
2009,12,15,15,44,4.50
2009,12,15,15,45,4.50
2009,12,15,15,46,4.50
2009,12,15,15,47,4.50
2009,12,15,15,48,4.50
2009,12,15,15,49,4.50
2009,12,15,15,50,4.50
2009,12,15,15,51,4.50
2009,12,15,15,52,4.50
2009,12,15,15,53,4.50
2009,12,15,15,54,4.40
2009,12,15,15,55,4.40
2009,12,15,15,56,4.40
2009,12,15,15,57,4.40
2009,12,15,15,58,4.40
2009,12,15,15,59,4.40
2009,12,15,16,00,4.40
2009,12,15,16,01,4.40
2009,12,15,16,02,4.40
2009,12,15,16,03,4.40
2009,12,15,16,04,4.40
2009,12,15,16,05,4.40
2009,12,15,16,06,4.40
2009,12,15,16,07,4.30
2009,12,15,16,08,4.30
2009,12,15,16,09,4.30
2009,12,15,16,10,4.30
2009,12,15,16,11,4.30
2009,12,15,16,12,4.30
2009,12,15,16,13,4.30
2009,12,15,16,14,4.30
2009,12,15,16,15,4.30
2009,12,15,16,16,4.30
2009,12,15,16,17,4.20
2009,12,15,16,18,4.20
2009,12,15,16,19,4.20
2009,12,15,16,20,4.20
2009,12,15,16,21,4.20
2009,12,15,16,22,4.20
2009,12,15,16,23,4.20
2009,12,15,16,24,4.20
2009,12,15,16,25,4.20
2009,12,15,16,26,4.20
2009,12,15,16,27,4.20
2009,12,15,16,28,4.20
2009,12,15,16,29,4.20
2009,12,15,16,30,4.30
2009,12,15,16,31,4.30
2009,12,15,16,32,4.30
2009,12,15,16,33,4.30
2009,12,15,16,34,4.40
2009,12,15,16,35,4.40
2009,12,15,16,36,4.40
2009,12,15,16,37,4.40
2009,12,15,16,38,4.40
2009,12,15,16,39,4.40
2009,12,15,16,40,4.30
2009,12,15,16,41,4.30
2009,12,15,16,42,4.30
2009,12,15,16,43,4.30
2009,12,15,16,44,4.30
2009,12,15,16,45,4.30
2009,12,15,16,46,4.30
2009,12,15,16,47,4.30
2009,12,15,16,48,4.30
2009,12,15,16,49,4.30
2009,12,15,16,50,4.30
2009,12,15,16,51,4.30
2009,12,15,16,52,4.30
2009,12,15,16,53,4.30
2009,12,15,16,54,4.20
2009,12,15,16,55,4.30
2009,12,15,16,56,4.30
2009,12,15,16,57,4.30
2009,12,15,16,58,4.30
2009,12,15,16,59,4.30
2009,12,15,17,00,4.30
2009,12,15,17,01,4.30
2009,12,15,17,02,4.30
2009,12,15,17,03,4.30
2009,12,15,17,04,4.30
2009,12,15,17,05,4.30
2009,12,15,17,06,4.30
2009,12,15,17,07,4.30
2009,12,15,17,08,4.30
2009,12,15,17,09,4.30
2009,12,15,17,10,4.30
2009,12,15,17,11,4.30
2009,12,15,17,12,4.40
2009,12,15,17,13,4.40
2009,12,15,17,14,4.40
2009,12,15,17,15,4.40
2009,12,15,17,16,4.50
2009,12,15,17,17,4.60
2009,12,15,17,18,4.60
2009,12,15,17,19,4.70
2009,12,15,17,20,4.70
2009,12,15,17,21,4.70
2009,12,15,17,22,4.80
2009,12,15,17,23,4.80
2009,12,15,17,24,4.80
2009,12,15,17,25,4.80
2009,12,15,17,26,4.80
2009,12,15,17,27,4.80
2009,12,15,17,28,4.80
2009,12,15,17,29,4.80
2009,12,15,17,30,4.80
2009,12,15,17,31,4.80
2009,12,15,17,32,4.80
2009,12,15,17,33,4.80
2009,12,15,17,34,4.80
2009,12,15,17,35,4.80
2009,12,15,17,36,4.70
2009,12,15,17,37,4.70
2009,12,15,17,38,4.70
2009,12,15,17,39,4.80
2009,12,15,17,40,4.80
2009,12,15,17,41,4.80
2009,12,15,17,42,4.80
2009,12,15,17,43,4.80
2009,12,15,17,44,4.80
2009,12,15,17,45,4.80
2009,12,15,17,46,4.80
2009,12,15,17,47,4.80
2009,12,15,17,48,4.90
2009,12,15,17,49,4.90
2009,12,15,17,50,4.90
2009,12,15,17,51,4.90
2009,12,15,17,52,4.90
2009,12,15,17,53,5.00
2009,12,15,17,54,5.00
2009,12,15,17,55,5.00
2009,12,15,17,56,5.10
2009,12,15,17,57,5.10
2009,12,15,17,58,5.10
2009,12,15,17,59,5.20
2009,12,15,18,00,5.20
2009,12,15,18,01,5.20
2009,12,15,18,02,5.30
2009,12,15,18,03,5.30
2009,12,15,18,04,5.30
2009,12,15,18,05,5.30
2009,12,15,18,06,5.30
2009,12,15,18,07,5.30
2009,12,15,18,08,5.30
2009,12,15,18,09,5.30
2009,12,15,18,10,5.30
2009,12,15,18,11,5.20
2009,12,15,18,12,5.20
2009,12,15,18,13,5.20
2009,12,15,18,14,5.20
2009,12,15,18,15,5.20
2009,12,15,18,16,5.20
2009,12,15,18,17,5.20
2009,12,15,18,18,5.20
2009,12,15,18,19,5.20
2009,12,15,18,20,5.20
2009,12,15,18,21,5.20
2009,12,15,18,22,5.30
2009,12,15,18,23,5.20
2009,12,15,18,24,5.30
2009,12,15,18,25,5.30
2009,12,15,18,26,5.30
2009,12,15,18,27,5.40
2009,12,15,18,28,5.40
2009,12,15,18,29,5.40
2009,12,15,18,30,5.50
2009,12,15,18,31,5.60
2009,12,15,18,32,5.70
2009,12,15,18,33,5.80
2009,12,15,18,34,5.90
2009,12,15,18,35,5.90
2009,12,15,18,36,6.00
2009,12,15,18,37,6.10
2009,12,15,18,38,6.20
2009,12,15,18,39,6.20
2009,12,15,18,40,6.30
2009,12,15,18,41,6.40
2009,12,15,18,42,6.50
2009,12,15,18,43,6.50
2009,12,15,18,44,6.60
2009,12,15,18,45,6.70
2009,12,15,18,46,6.70
2009,12,15,18,47,6.70
2009,12,15,18,48,6.80
2009,12,15,18,49,6.80
2009,12,15,18,50,6.80
2009,12,15,18,51,6.80
2009,12,15,18,52,6.80
2009,12,15,18,53,6.90
2009,12,15,18,54,7.00
2009,12,15,18,55,7.00
2009,12,15,18,56,7.10
2009,12,15,18,57,7.10
2009,12,15,18,58,7.20
2009,12,15,18,59,7.20
2009,12,15,19,00,7.20
2009,12,15,19,01,7.20
2009,12,15,19,02,7.20
2009,12,15,19,03,7.20
2009,12,15,19,04,7.20
2009,12,15,19,05,7.20
2009,12,15,19,06,7.20
2009,12,15,19,07,7.20
2009,12,15,19,08,7.20
2009,12,15,19,09,7.20
2009,12,15,19,10,7.20
2009,12,15,19,11,7.30
2009,12,15,19,12,7.30
2009,12,15,19,13,7.30
2009,12,15,19,14,7.40
2009,12,15,19,15,7.40
2009,12,15,19,16,7.40
2009,12,15,19,17,7.40
2009,12,15,19,18,7.40
2009,12,15,19,19,7.40
2009,12,15,19,20,7.40
2009,12,15,19,21,7.40
2009,12,15,19,22,7.40
2009,12,15,19,23,7.30
2009,12,15,19,24,7.30
2009,12,15,19,25,7.30
2009,12,15,19,26,7.30
2009,12,15,19,27,7.30
2009,12,15,19,28,7.30
2009,12,15,19,29,7.40
2009,12,15,19,30,7.30
2009,12,15,19,31,7.30
2009,12,15,19,32,7.30
2009,12,15,19,33,7.40
2009,12,15,19,34,7.40
2009,12,15,19,35,7.40
2009,12,15,19,36,7.40
2009,12,15,19,37,7.40
2009,12,15,19,38,7.40
2009,12,15,19,39,7.40
2009,12,15,19,40,7.40
2009,12,15,19,41,7.40
2009,12,15,19,42,7.40
2009,12,15,19,43,7.40
2009,12,15,19,44,7.40
2009,12,15,19,45,7.40
2009,12,15,19,46,7.50
2009,12,15,19,47,7.50
2009,12,15,19,48,7.50
2009,12,15,19,49,7.50
2009,12,15,19,50,7.50
2009,12,15,19,51,7.50
2009,12,15,19,52,7.40
2009,12,15,19,53,7.40
2009,12,15,19,54,7.40
2009,12,15,19,55,7.40
2009,12,15,19,56,7.40
2009,12,15,19,57,7.40
2009,12,15,19,58,7.40
2009,12,15,19,59,7.40
2009,12,15,20,00,7.40
2009,12,15,20,01,7.50
2009,12,15,20,02,7.50
2009,12,15,20,03,7.50
2009,12,15,20,04,7.50
2009,12,15,20,05,7.50
2009,12,15,20,06,7.50
2009,12,15,20,07,7.50
2009,12,15,20,08,7.60
2009,12,15,20,09,7.60
2009,12,15,20,10,7.50
2009,12,15,20,11,7.50
2009,12,15,20,12,7.50
2009,12,15,20,13,7.50
2009,12,15,20,14,7.50
2009,12,15,20,15,7.50
2009,12,15,20,16,7.50
2009,12,15,20,17,7.50
2009,12,15,20,18,7.50
2009,12,15,20,19,7.50
2009,12,15,20,20,7.60
2009,12,15,20,21,7.60
2009,12,15,20,22,7.50
2009,12,15,20,23,7.50
2009,12,15,20,24,7.50
2009,12,15,20,25,7.50
2009,12,15,20,26,7.50
2009,12,15,20,27,7.50
2009,12,15,20,28,7.50
2009,12,15,20,29,7.50
2009,12,15,20,30,7.40
2009,12,15,20,31,7.40
2009,12,15,20,32,7.40
2009,12,15,20,33,7.40
2009,12,15,20,34,7.40
2009,12,15,20,35,7.40
2009,12,15,20,36,7.40
2009,12,15,20,37,7.50
2009,12,15,20,38,7.50
2009,12,15,20,39,7.50
2009,12,15,20,40,7.50
2009,12,15,20,41,7.50
2009,12,15,20,42,7.50
2009,12,15,20,43,7.50
2009,12,15,20,44,7.50
2009,12,15,20,45,7.50
2009,12,15,20,46,7.50
2009,12,15,20,47,7.60
2009,12,15,20,48,7.60
2009,12,15,20,49,7.60
2009,12,15,20,50,7.60
2009,12,15,20,51,7.60
2009,12,15,20,52,7.60
2009,12,15,20,53,7.60
2009,12,15,20,54,7.60
2009,12,15,20,55,7.60
2009,12,15,20,56,7.60
2009,12,15,20,57,7.60
2009,12,15,20,58,7.60
2009,12,15,20,59,7.60
2009,12,15,21,00,7.60
2009,12,15,21,01,7.60
2009,12,15,21,02,7.60
2009,12,15,21,03,7.60
2009,12,15,21,04,7.60
2009,12,15,21,05,7.60
2009,12,15,21,06,7.70
2009,12,15,21,07,7.70
2009,12,15,21,08,7.70
2009,12,15,21,09,7.70
2009,12,15,21,10,7.70
2009,12,15,21,11,7.80
2009,12,15,21,12,7.70
2009,12,15,21,13,7.80
2009,12,15,21,14,7.80
2009,12,15,21,15,7.80
2009,12,15,21,16,7.80
2009,12,15,21,17,7.80
2009,12,15,21,18,7.80
2009,12,15,21,19,7.80
2009,12,15,21,20,7.80
2009,12,15,21,21,7.80
2009,12,15,21,22,7.80
2009,12,15,21,23,7.80
2009,12,15,21,24,7.80
2009,12,15,21,25,7.80
2009,12,15,21,26,7.80
2009,12,15,21,27,7.80
2009,12,15,21,28,7.80
2009,12,15,21,29,7.80
2009,12,15,21,30,7.80
2009,12,15,21,31,7.80
2009,12,15,21,32,7.90
2009,12,15,21,33,7.90
2009,12,15,21,34,7.90
2009,12,15,21,35,7.90
2009,12,15,21,36,7.90
2009,12,15,21,37,7.80
2009,12,15,21,38,7.80
2009,12,15,21,39,7.80
2009,12,15,21,40,7.80
2009,12,15,21,41,7.80
2009,12,15,21,42,7.80